Location: Newport
(44.6370°N, 124.0520°W)
Time: 11:18:11
(UTC-08:00)

Vanguard 1 - Visible Passes

Search period start: 11 December 2017 00:00
Search period end: 21 December 2017 00:00
Orbit: 650 x 3833 km, 34.2° (Epoch: 10 December)

Date Brightness Start Highest point End Pass type
(mag) Time Alt. Az. Time Alt. Az. Time Alt. Az.
11 Dec 14.8 06:35:06 10° SSE 06:46:20 16° SE 06:56:02 10° ESE visible
12 Dec 14.7 06:52:17 10° S 07:07:14 22° SE 07:19:28 10° E visible
13 Dec 14.6 07:10:47 10° SSW 07:28:10 28° SE 07:41:49 10° E visible
14 Dec 14.8 05:18:44 10° SSE 05:26:05 12° SE 05:33:04 10° ESE visible
15 Dec 14.6 05:33:47 10° S 05:46:47 18° SE 05:58:38 10° E visible
16 Dec 14.5 05:51:23 10° S 06:07:30 24° SE 06:21:50 10° E visible
17 Dec 14.3 06:10:04 10° SSW 06:28:18 31° SE 06:44:09 10° E visible
18 Dec 14.6 04:17:53 10° SSE 04:26:26 13° SE 04:34:55 10° ESE visible
18 Dec 14.1 06:29:27 10° SSW 06:49:11 37° SSE 07:05:58 10° E visible
19 Dec 14.4 04:33:35 10° SSE 04:46:54 19° SE 05:00:05 10° E visible
19 Dec 14.0 06:49:19 10° SSW 07:10:09 43° SSE 07:27:29 10° E visible
20 Dec 14.2 04:51:26 10° S 05:07:27 25° SE 05:23:16 10° E visible
20 Dec 13.8 07:09:34 10° SW 07:31:13 49° SSE 07:48:50 10° E visible
